Weather History for PHSF - February, 2014

Change the Weather History Date:

Tuesday, February 25, 2014

  Actual Average Record
Temperature  
Mean Temperature 53 °F -  
Max Temperature 64 °F 64 °F 68 °F (1999)
Min Temperature 42 °F 42 °F 37 °F (2005)
Degree Days  
Heating Degree Days 12    
Growing Degree Days 3 (Base 50)    
Moisture  
Dew Point 26 °F    
Average Humidity 38    
Maximum Humidity 67    
Minimum Humidity 22    
Precipitation  
Precipitation 0.00 in - - ()
Sea Level Pressure  
Sea Level Pressure 29.94 in    
Wind  
Wind Speed 6 mph (SW)    
Max Wind Speed 14 mph    
Max Gust Speed 22 mph    
Visibility 11 miles    
Events      
Averages and records for this station are not official NWS values.
T = Trace of Precipitation, MM = Missing Value Source: NWS Daily Summary

Daily Weather History Graph

Daily Weather History Graph

Search for Another Location

Airport or City:

Trip Planner

Search our weather history database for the weather conditions in past years. The results will help you decide how hot, cold, wet, or windy it might be!

Date:

Astronomy

Feb. 25, 2014 Rise Set
Actual Time 6:44 AM HST 6:26 PM HST
Civil Twilight 6:22 AM HST 6:48 PM HST
Nautical Twilight 5:56 AM HST 7:13 PM HST
Astronomical Twilight 5:31 AM HST 7:39 PM HST
Moon 3:28 AM HST (2/25) 3:03 PM HST (2/25)
Length of Visible Light 12h 25m
Length of Day
11h 41m
Waning Crescent, 16% of the Moon is Illuminated
Feb 25
Waning Crescent
Feb 28
New
Mar 8
First Quarter
Mar 16
Full
Mar 23
Last Quarter

Hourly Weather History & Observations

Time (HST) Temp. Windchill Dew Point Humidity Pressure Visibility Wind Dir Wind Speed Gust Speed Precip Events Conditions
12:56 AM 46.0 °F 44.8 °F 35.6 °F 67% 29.90 in 12.0 mi ESE 3.5 mph - N/A   Clear
1:56 AM 43.9 °F 40.5 °F 33.1 °F 66% 29.89 in 12.0 mi East 5.8 mph - N/A   Clear
2:56 AM 43.5 °F 40.1 °F 30.0 °F 59% 29.86 in 12.0 mi ESE 5.8 mph - N/A   Clear
3:56 AM 43.2 °F 39.7 °F 28.2 °F 56% 29.88 in 12.0 mi NE 5.8 mph - N/A   Clear
4:56 AM 43.3 °F 40.7 °F 26.6 °F 52% 29.88 in 9.0 mi ESE 4.6 mph - N/A   Clear
5:56 AM 42.8 °F - 21.4 °F 43% 29.91 in 10.0 mi East 1.2 mph - N/A   Clear
6:56 AM 45.3 °F - 18.7 °F 35% 29.94 in 8.0 mi NNE 2.3 mph - N/A   Clear
7:11 AM 44.6 °F - 17.6 °F 34% 30.21 in 2.0 mi ESE 1.2 mph - N/A   Haze
7:16 AM 44.6 °F - 21.2 °F 39% 30.21 in 2.0 mi ESE 2.3 mph - N/A   Haze
7:36 AM 48.2 °F - 26.6 °F 43% 30.22 in 6.0 mi ESE 3.5 mph - N/A   Clear
7:56 AM 53.8 °F - 21.9 °F 29% 29.92 in 11.0 mi South 3.5 mph - N/A   Clear
8:56 AM 57.4 °F - 26.8 °F 31% 29.94 in 12.0 mi WSW 4.6 mph - N/A   Clear
9:56 AM 61.0 °F - 22.1 °F 22% 29.93 in 12.0 mi WSW 11.5 mph 15.0 mph N/A   Clear
10:56 AM 62.4 °F - 30.9 °F 31% 29.92 in 12.0 mi WSW 12.7 mph 20.7 mph N/A   Clear
11:56 AM 61.7 °F - 36.1 °F 39% 29.92 in 12.0 mi West 13.8 mph 20.7 mph N/A   Partly Cloudy
12:56 PM 63.3 °F - 27.9 °F 26% 29.91 in 12.0 mi WSW 12.7 mph 21.9 mph N/A   Clear
1:56 PM 64.2 °F - 27.5 °F 25% 29.88 in 12.0 mi West 12.7 mph 20.7 mph N/A   Clear
2:56 PM 62.4 °F - 38.5 °F 41% 29.86 in 12.0 mi WSW 13.8 mph 20.7 mph N/A   Clear
3:56 PM 62.1 °F - 34.3 °F 35% 29.86 in 12.0 mi WSW 12.7 mph 18.4 mph N/A   Clear
4:56 PM 61.3 °F - 23.0 °F 23% 29.88 in 12.0 mi West 12.7 mph - N/A   Clear
5:56 PM 58.1 °F - 34.2 °F 41% 29.91 in 12.0 mi West 10.4 mph - N/A   Clear
6:56 PM 52.5 °F - 39.2 °F 61% 29.93 in 12.0 mi West 5.8 mph - N/A   Clear
7:56 PM 52.0 °F - 17.1 °F 25% 29.92 in 12.0 mi WSW 3.5 mph - N/A   Clear
8:56 PM 52.0 °F - 16.5 °F 25% 29.92 in 12.0 mi West 5.8 mph - N/A   Clear
9:56 PM 47.8 °F - 19.2 °F 32% 29.94 in 12.0 mi East 2.3 mph - N/A   Clear
10:56 PM 47.7 °F - 17.8 °F 30% 29.93 in 12.0 mi NNW 3.5 mph - N/A   Clear
11:56 PM 51.1 °F - 16.0 °F 25% 29.92 in 12.0 mi NW 6.9 mph - N/A   Clear